Weather in Kylasovo

Russia / Perm Krai     57°32′50″N   56°40′14″E
temp.,
°C
wind,
m/s
gust,
m/s
humid.,
%
clouds,
%
prec.,
mm/h
press.,
hPa
HPBL,
m
2 march, tue
tue223:00−18ssw349736 0.0 101549
02:00−19ssw479715 0.0 1013120
05:00−17ssw6129451 0.0 1010337
08:00−17ssw81492100 0.0 1007420
11:00−15ssw81493100 0.3 1005507
14:00−13ssw81392100 0.4 1001615
17:00−11ssw71390100 0.9 1000651
20:00−10ssw61293100 0.3 998557
3 march, wed
wed323:00−9ssw61294100 1.1 997543
02:00−7s4996100 0.9 994404
05:00−7sse2397100 1.9 99455
08:00−8nw239696 0.1 99433
11:00−5wnw249387 0.1 995252
14:00−2w359199 0.0 996552
17:00−2wsw468999 0.1 996605
20:00−4sw3595100 0.1 996108
4 march, thu
thu423:00−6wsw3594100 0.3 99794
02:00−6nw4995100 0.1 997323
05:00−9wnw4794100 0.3 998198
08:00−14w349497 0.0 99979
11:00−9wsw478998 0.0 1001375
14:00−6wsw5886100 0.0 1000762
17:00−6sw5985100 0.1 1000867
20:00−8ssw5119299 0.0 999381
5 march, fri
fri523:00−7ssw61392100 0.1 997606
02:00−6ssw91693100 0.3 992791
05:00−3ssw91695100 1.4 989905
08:00−1wsw91687100 0.8 9871153
11:00−4wsw9157969 1.1 9901238
14:00−5w10158276 0.1 9951345
17:00−6w7128488 0.1 999878
20:00−10w4991100 0.0 1003181
6 march, sat
sat623:00−13w479296 0.0 1006114
02:00−16w349582 0.0 100866
05:00−18w239673 0.0 101020
08:00−19sw129790 0.0 101120
11:00−14se119195 0.0 1010186
14:00−11e3488100 0.0 1006359
17:00−10ne4694100 0.3 1002361
20:00−10n61095100 1.8 999405